Flag for Cuba Weather past 2 weeks in Holguín, Cuba

Now
82 °F

Partly sunny.


Feels Like: 83 °F
Forecast: 67 / 82 °F
Wind: 13 mph from East

Location: Holguin Civ / Mil

Current Time: Apr 1, 2015 at 1:06:21 PM

Latest Report: Apr 1, 2015 at 11:50 AM


Visibility: N/A

Pressure: 30.09 "Hg

Humidity: 51%

Dew point: 63 °F

Location of HolguínLocation

Historic Weather in Holguín — Graph

°F

Holguín temperature yesterday

Maximum temperature yesterday: 82 °F (at 12:50 PM)
Minimum temperature yesterday: 68 °F (at 6:51 AM)
Average temperature yesterday: 74 °F

Past Weeks' High & Low Weather Summary

 TemperatureHumidityPressure
High95 °F (Mar 25, 3:50 PM)94% (Mar 18, 5:50 AM)30.15 "Hg (Mar 18, 5:50 AM)
Low63 °F (Mar 22, 6:50 AM)23% (Mar 25, 3:50 PM)29.89 "Hg (Mar 18, 3:50 PM)
Average77 °F65%30.03 "Hg
* Reported Mar 17 11:50 AM — Apr 1 11:50 AM, Holguín, Weather by CustomWeather, © 2015

Note: Actual official high and low records may vary slightly from our data, if they occured in-between our weather recording intervals... More about our weather records

Advertising

Holguín weather history for previous 24 hours

 ConditionsComfort  
Time TempWeatherWind HumidityBarometerVisibility
11:50 AM
Wed, Apr 1
82 °FPartly sunny.13 mph51%30.09 "HgN/A
10:53 AM81 °FPartly sunny.13 mph54%30.09 "HgN/A
9:50 AM79 °FScattered clouds.16 mph54%30.09 "HgN/A
8:50 AM75 °FPassing clouds.12 mph69%30.07 "HgN/A
7:50 AM68 °FPassing clouds.5 mph88%30.07 "HgN/A
6:50 AM64 °FPassing clouds.7 mph88%30.04 "Hg6 mi
5:50 AM64 °FPassing clouds.6 mph88%30.04 "Hg6 mi
4:50 AM64 °FClear.5 mph88%30.01 "Hg10 mi
3:50 AM66 °FClear.7 mph88%30.01 "Hg10 mi
2:50 AM66 °FClear.6 mph83%30.04 "Hg10 mi
1:50 AM66 °FClear.6 mph88%30.07 "Hg10 mi
12:50 AM66 °FClear.5 mph88%30.07 "Hg10 mi
11:50 PM
Tue, Mar 31
68 °FClear.6 mph83%30.07 "Hg10 mi
10:50 PM70 °FPassing clouds.7 mph78%30.09 "Hg6 mi
9:50 PM70 °FPassing clouds.6 mph78%30.07 "Hg6 mi
8:50 PM72 °FPassing clouds.5 mph78%30.07 "Hg6 mi
7:50 PM73 °FScattered clouds.5 mph74%30.04 "Hg6 mi
6:55 PM75 °FScattered clouds.8 mph65%30.04 "Hg6 mi
5:52 PM77 °FScattered showers. Broken clouds.12 mph61%30.04 "Hg5 mi
4:50 PM75 °FPartly sunny.16 mph69%30.01 "Hg6 mi
3:51 PM79 °FBroken clouds.17 mph58%30.01 "Hg6 mi
2:51 PM79 °FBroken clouds.15 mph58%30.04 "Hg6 mi
1:51 PM81 °FBroken clouds.17 mph51%30.04 "Hg6 mi
Weather by CustomWeather, © 2015

See weather overviewHow to use our weather pages